GW3591 Weather Reports


time (UTC)temp
C
wind
direction
speed
KPH
gust
KPH
rain 1hr
cm
rain 24hr
cm
rain mn
cm
humidity
%
barometer
mb
20260510095055 10 312 0.0 0.0 0.00 0.00 0.00 99 1013.4
20260510094550 10 312 0.0 0.0 0.00 0.00 0.00 99 1013.6
20260510094046 10 316 0.0 0.0 0.00 0.00 0.00 99 1013.4
20260510093542 10 314 0.0 0.0 0.00 0.00 0.00 99 1013.4
20260510093039 10 314 0.0 0.0 0.00 0.00 0.00 99 1013.5
20260510092536 10 314 0.0 0.0 0.00 0.00 0.00 99 1013.7
20260510092035 10 314 0.0 0.0 0.00 0.00 0.00 99 1013.5
20260510091533 10 289 0.0 0.0 0.00 0.00 0.00 99 1013.6
20260510091028 10 310 0.0 0.0 0.00 0.00 0.00 99 1013.5
20260510090526 10 23 0.0 0.0 0.00 0.00 0.00 99 1013.4
20260510090021 10 51 0.0 0.0 0.00 0.00 0.00 99 1013.2
20260510085521 10 51 0.0 0.0 0.00 0.00 0.00 99 1013.4
20260510085017 10 324 0.0 0.0 0.00 0.00 0.00 99 1013.5
20260510084514 11 315 0.0 0.0 0.00 0.00 0.00 99 1013.4
20260510084011 11 339 0.0 0.0 0.00 0.00 0.00 99 1013.3
20260510083507 10 316 0.0 0.0 0.00 0.00 0.00 99 1013.5
20260510083003 11 328 0.0 0.0 0.00 0.00 0.00 99 1013.3
20260510082501 10 230 0.0 0.0 0.00 0.00 0.00 99 1013.4
20260510082001 10 180 0.0 1.6 0.00 0.00 0.00 99 1013.3
20260510081456 10 317 0.0 0.0 0.00 0.00 0.00 99 1013.1
20260510080952 10 317 0.0 0.0 0.00 0.00 0.00 99 1012.9
20260510080451 10 101 0.0 0.0 0.00 0.00 0.00 99 1012.9
20260510075948 10 103 0.0 0.0 0.00 0.00 0.00 99 1012.9
20260510075446 10 112 0.0 0.0 0.00 0.00 0.00 99 1013.0
20260510074942 10 165 0.0 0.0 0.00 0.00 0.00 99 1012.8
20260510074440 10 169 0.0 0.0 0.00 0.00 0.00 99 1012.6
20260510073936 10 16 0.0 0.0 0.00 0.00 0.00 99 1012.7
20260510073432 10 16 0.0 0.0 0.00 0.00 0.00 99 1012.5
20260510072928 10 16 0.0 0.0 0.00 0.00 0.00 99 1012.6
20260510072425 10 16 0.0 0.0 0.00 0.00 0.00 99 1012.6
20260510071920 10 16 0.0 0.0 0.00 0.00 0.00 99 1012.6
20260510071418 10 16 0.0 0.0 0.00 0.00 0.00 99 1012.4
20260510070916 10 16 0.0 0.0 0.00 0.00 0.00 99 1012.3
20260510070413 10 16 0.0 0.0 0.00 0.00 0.00 99 1012.4
20260510065908 10 16 0.0 0.0 0.00 0.00 0.00 99 1012.3
20260510065404 10 16 0.0 0.0 0.00 0.00 0.00 99 1012.5
20260510064901 10 16 0.0 0.0 0.00 0.00 0.00 99 1012.3
20260510064359 10 16 0.0 0.0 0.00 0.00 0.00 99 1012.4
20260510063855 11 16 0.0 0.0 0.00 0.00 0.00 99 1012.2
20260510063352 11 16 0.0 0.0 0.00 0.00 0.00 99 1012.0
20260510062848 11 16 0.0 0.0 0.00 0.00 0.00 99 1012.1
20260510062344 11 16 0.0 0.0 0.00 0.00 0.00 99 1012.1
20260510061839 11 16 0.0 0.0 0.00 0.00 0.00 99 1012.1
20260510061336 11 16 0.0 0.0 0.00 0.00 0.00 98 1012.1
20260510060832 11 16 0.0 0.0 0.00 0.00 0.00 98 1012.3
20260510060330 11 16 0.0 0.0 0.00 0.00 0.00 98 1012.4
20260510055827 11 16 0.0 0.0 0.00 0.00 0.00 98 1012.3
20260510055325 11 16 0.0 0.0 0.00 0.00 0.00 98 1012.3
20260510054825 11 16 0.0 0.0 0.00 0.00 0.00 98 1012.4
20260510054320 12 16 0.0 0.0 0.00 0.00 0.00 98 1012.4
20260510053816 12 16 0.0 0.0 0.00 0.00 0.00 98 1012.5
20260510053311 12 16 0.0 0.0 0.00 0.00 0.00 98 1012.4
20260510052808 12 16 0.0 0.0 0.00 0.00 0.00 98 1012.4
20260510052306 12 16 0.0 0.0 0.00 0.00 0.00 98 1012.4
20260510051800 12 16 0.0 0.0 0.00 0.00 0.00 98 1012.3
20260510051257 12 16 0.0 0.0 0.00 0.00 0.00 97 1012.5
20260510050753 12 16 0.0 0.0 0.00 0.00 0.00 97 1012.4
20260510050245 12 16 0.0 0.0 0.00 0.00 0.00 97 1012.5
20260510045742 12 16 0.0 0.0 0.00 0.00 0.00 97 1012.5
20260510045238 12 16 0.0 0.0 0.00 0.00 0.00 97 1012.6
20260510044735 12 16 0.0 0.0 0.00 0.00 0.00 97 1012.5
20260510044233 12 16 0.0 0.0 0.00 0.00 0.00 96 1012.4
20260510043728 12 16 0.0 0.0 0.00 0.00 0.00 96 1012.5
20260510043225 12 16 0.0 0.0 0.00 0.00 0.00 96 1012.5
20260510042722 12 16 0.0 0.0 0.00 0.00 0.00 96 1012.5
20260510042218 12 16 0.0 0.0 0.00 0.00 0.00 95 1012.6
20260510041715 12 16 0.0 0.0 0.00 0.00 0.00 95 1012.6
20260510041213 12 16 0.0 0.0 0.00 0.00 0.00 95 1012.5
20260510040709 12 16 0.0 0.0 0.00 0.00 0.00 95 1012.5
20260510040206 13 16 0.0 0.0 0.00 0.00 0.00 95 1012.6
20260510035702 13 16 0.0 0.0 0.00 0.00 0.00 95 1012.5
20260510035158 13 16 0.0 0.0 0.00 0.00 0.00 94 1012.4
20260510034654 13 16 0.0 0.0 0.00 0.00 0.00 94 1012.5
20260510034151 13 16 0.0 0.0 0.00 0.00 0.00 94 1012.5
20260510033647 13 16 0.0 0.0 0.00 0.00 0.00 93 1012.5
20260510033145 13 16 0.0 0.0 0.00 0.00 0.00 93 1012.3
20260510032641 13 16 0.0 0.0 0.00 0.00 0.00 93 1012.3
20260510032137 13 16 0.0 0.0 0.00 0.00 0.00 93 1012.4
20260510031632 13 16 0.0 0.0 0.00 0.00 0.00 93 1012.6
20260510031129 13 16 0.0 0.0 0.00 0.00 0.00 93 1012.3
20260510030623 13 16 0.0 0.0 0.00 0.00 0.00 92 1012.5
20260510030121 13 16 0.0 0.0 0.00 0.00 0.00 92 1012.3
20260510025618 13 16 0.0 0.0 0.00 0.00 0.00 92 1012.3
20260510025115 13 16 0.0 0.0 0.00 0.00 0.00 92 1012.3
20260510024612 14 16 0.0 0.0 0.00 0.00 0.00 91 1012.2
20260510024108 14 16 0.0 0.0 0.00 0.00 0.00 91 1012.2
20260510023604 14 37 0.0 0.0 0.00 0.00 0.00 91 1012.1
20260510023102 14 37 0.0 0.0 0.00 0.00 0.00 90 1012.2
20260510022602 14 37 0.0 0.0 0.00 0.00 0.00 90 1012.0
20260510022056 15 37 0.0 0.0 0.00 0.00 0.00 89 1012.0
20260510021553 15 37 0.0 0.0 0.00 0.00 0.00 89 1012.2
20260510021050 15 37 0.0 0.0 0.00 0.00 0.00 88 1012.2
20260510020544 15 37 0.0 0.0 0.00 0.00 0.00 88 1012.3
20260510020040 15 37 0.0 0.0 0.00 0.00 0.00 87 1012.3
20260510015536 15 37 0.0 0.0 0.00 0.00 0.00 86 1012.3
20260510015032 15 176 0.0 0.0 0.00 0.00 0.00 86 1012.1
20260510014529 15 18 0.0 0.0 0.00 0.00 0.00 86 1012.0
20260510014026 15 20 0.0 0.0 0.00 0.00 0.00 85 1012.0
20260510013520 16 20 0.0 0.0 0.00 0.00 0.00 84 1011.9
20260510013016 16 351 0.0 0.0 0.00 0.00 0.00 84 1011.9
20260510012511 16 61 0.0 0.0 0.00 0.00 0.00 83 1011.9
20260510012007 16 55 0.0 0.0 0.00 0.00 0.00 82 1011.8
20260510011501 16 71 0.0 0.0 0.00 0.00 0.00 82 1011.5
20260510010957 16 32 0.0 0.0 0.00 0.00 0.00 82 1011.7
20260510010455 16 25 0.0 0.0 0.00 0.00 0.00 82 1011.3
20260510005951 16 46 0.0 0.0 0.00 0.00 0.00 81 1011.3
20260510005447 16 23 0.0 0.0 0.00 0.00 0.00 80 1011.2
20260510004945 16 27 0.0 0.0 0.00 0.00 0.00 80 1011.5
20260510004442 17 28 0.0 0.0 0.00 0.00 0.00 79 1011.5
20260510003940 17 12 0.0 0.0 0.00 0.00 0.00 79 1011.3
20260510003437 17 33 0.0 0.0 0.00 0.00 0.00 78 1011.1
20260510002937 17 36 0.0 0.0 0.00 0.00 0.00 78 1011.1
20260510002433 17 11 0.0 0.0 0.00 0.00 0.00 77 1011.0
20260510001930 18 13 0.0 0.0 0.00 0.00 0.00 76 1011.1
20260510001427 18 12 0.0 0.0 0.00 0.00 0.00 75 1011.3
20260510000925 18 24 0.0 0.0 0.00 0.00 0.00 74 1011.2
20260510000421 18 39 0.0 0.0 0.00 0.00 0.00 73 1010.9
20260509235917 18 356 0.0 0.0 0.00 0.00 0.00 73 1011.0
20260509235409 19 358 0.0 0.0 0.00 0.00 0.00 71 1010.9
20260509234904 19 357 0.0 0.0 0.00 0.00 0.00 70 1011.0
20260509234402 20 357 0.0 0.0 0.00 0.00 0.00 69 1011.1
20260509233900 20 31 0.0 0.0 0.00 0.00 0.00 67 1010.9
20260509233357 20 31 0.0 0.0 0.00 0.00 0.00 66 1010.8
20260509232852 20 351 0.0 0.0 0.00 0.00 0.00 66 1010.7
20260509232350 21 354 0.0 0.0 0.00 0.00 0.00 66 1010.7
20260509231846 21 342 0.0 0.0 0.00 0.00 0.00 63 1010.6
20260509231343 21 65 0.0 0.0 0.00 0.00 0.00 62 1010.6
20260509230835 21 17 0.0 0.0 0.00 0.00 0.00 63 1010.4
20260509230331 21 10 0.0 0.0 0.00 0.00 0.00 64 1010.7
20260509225826 21 101 0.0 1.6 0.00 0.00 0.00 63 1010.6
20260509225324 21 89 0.0 0.0 0.00 0.00 0.00 64 1010.5
20260509224820 21 152 0.0 0.0 0.00 0.00 0.00 63 1010.6
20260509224316 21 64 0.0 0.0 0.00 0.00 0.00 64 1010.6
20260509223812 21 222 0.0 0.0 0.00 0.00 0.00 61 1010.5
20260509223310 22 63 1.6 1.6 0.00 0.00 0.00 60 1010.6
20260509222806 22 29 0.0 1.6 0.00 0.00 0.00 59 1010.6
20260509222306 22 314 0.0 0.0 0.00 0.00 0.00 59 1010.6
20260509221758 22 263 0.0 0.0 0.00 0.00 0.00 60 1010.6
20260509221255 22 187 0.0 0.0 0.00 0.00 0.00 60 1010.7
20260509220750 22 225 0.0 1.6 0.00 0.00 0.00 59 1010.5
20260509220247 22 261 0.0 1.6 0.00 0.00 0.00 58 1010.7
20260509215742 22 163 1.6 1.6 0.00 0.00 0.00 59 1010.7
20260509215239 22 133 0.0 1.6 0.00 0.00 0.00 58 1010.7
20260509214736 22 140 0.0 0.0 0.00 0.00 0.00 58 1010.8
20260509214233 22 123 0.0 1.6 0.00 0.00 0.00 59 1010.8
20260509213730 22 188 0.0 0.0 0.00 0.00 0.00 58 1010.7
20260509213226 22 177 0.0 0.0 0.00 0.00 0.00 59 1010.9
20260509212723 22 235 1.6 3.2 0.00 0.00 0.00 58 1010.8
20260509212220 22 322 0.0 1.6 0.00 0.00 0.00 60 1010.7
20260509211716 21 351 0.0 0.0 0.00 0.00 0.00 60 1010.8
20260509211213 21 217 0.0 1.6 0.00 0.00 0.00 60 1010.7
20260509210709 22 92 0.0 0.0 0.00 0.00 0.00 59 1010.8
20260509210207 22 167 0.0 0.0 0.00 0.00 0.00 60 1010.7
20260509205707 22 219 0.0 0.0 0.00 0.00 0.00 60 1010.5
20260509205206 22 80 1.6 3.2 0.00 0.00 0.00 58 1010.5
20260509204703 22 155 3.2 3.2 0.00 0.00 0.00 58 1010.5
20260509204159 23 2 0.0 0.0 0.00 0.00 0.00 57 1010.4
20260509203655 22 129 0.0 0.0 0.00 0.00 0.00 56 1010.6
20260509203154 22 232 0.0 1.6 0.00 0.00 0.00 58 1010.6
20260509202649 21 132 0.0 0.0 0.00 0.00 0.00 58 1010.6
20260509202144 21 89 0.0 0.0 0.00 0.00 0.00 59 1010.6
20260509201639 21 294 0.0 1.6 0.00 0.00 0.00 59 1010.9
20260509201137 21 260 1.6 1.6 0.00 0.00 0.00 59 1010.8
20260509200633 22 100 0.0 0.0 0.00 0.00 0.00 56 1010.9
20260509200128 21 130 0.0 0.0 0.00 0.00 0.00 58 1011.0
20260509195624 21 191 0.0 1.6 0.00 0.00 0.00 58 1011.0
20260509195119 21 18 1.6 1.6 0.00 0.00 0.00 57 1011.0
20260509194619 21 117 0.0 0.0 0.00 0.00 0.00 57 1011.3
20260509194117 21 16 0.0 0.0 0.00 0.00 0.00 56 1011.1
20260509193612 22 164 0.0 0.0 0.00 0.00 0.00 57 1011.4
20260509193103 21 153 1.6 3.2 0.00 0.00 0.00 56 1011.3
20260509192559 21 57 0.0 0.0 0.00 0.00 0.00 56 1011.5
20260509192049 21 86 0.0 0.0 0.00 0.00 0.00 56 1011.5
20260509191549 21 67 0.0 0.0 0.00 0.00 0.00 55 1011.6
20260509191045 22 141 0.0 0.0 0.00 0.00 0.00 55 1011.6
20260509190541 21 3 0.0 0.0 0.00 0.00 0.00 56 1011.5
20260509190040 21 144 0.0 1.6 0.00 0.00 0.00 56 1011.6
20260509185537 21 259 0.0 1.6 0.00 0.00 0.00 56 1011.5
20260509185033 21 297 0.0 1.6 0.00 0.00 0.00 56 1011.8
20260509184532 22 144 3.2 3.2 0.00 0.00 0.00 54 1011.9
20260509184027 21 36 0.0 0.0 0.00 0.00 0.00 55 1011.8
20260509183522 20 47 1.6 3.2 0.00 0.00 0.00 57 1011.8
20260509183019 20 251 1.6 1.6 0.00 0.00 0.00 60 1011.8
20260509182515 20 319 1.6 1.6 0.00 0.00 0.00 60 1012.1
20260509182012 20 254 1.6 1.6 0.00 0.00 0.00 60 1012.2
20260509181510 20 333 1.6 1.6 0.00 0.00 0.00 59 1012.5
20260509181008 20 82 0.0 0.0 0.00 0.00 0.00 58 1012.5
20260509180502 19 320 0.0 0.0 0.00 0.00 0.00 59 1012.7
20260509180000 19 302 3.2 4.8 0.00 0.00 0.00 60 1012.8
20260509175456 18 326 0.0 0.0 0.00 0.00 0.00 59 1012.5
20260509174953 18 24 1.6 1.6 0.00 0.00 0.00 60 1012.5
20260509174449 18 267 0.0 0.0 0.00 0.00 0.00 59 1012.5
20260509173944 18 317 4.8 6.4 0.00 0.00 0.00 59 1012.6
20260509173439 18 280 0.0 0.0 0.00 0.00 0.00 59 1012.6
20260509172936 18 251 0.0 0.0 0.00 0.00 0.00 60 1012.6
20260509172433 18 302 1.6 3.2 0.00 0.00 0.00 60 1012.6
20260509171929 18 305 1.6 1.6 0.00 0.00 0.00 62 1012.7
20260509171425 18 307 3.2 3.2 0.00 0.00 0.00 62 1012.6
20260509170921 18 252 3.2 3.2 0.00 0.00 0.00 62 1012.6
20260509170417 18 327 4.8 6.4 0.00 0.00 0.00 62 1012.6
20260509165913 18 346 6.4 6.4 0.00 0.00 0.00 62 1012.6
20260509165407 18 315 4.8 6.4 0.00 0.00 0.00 62 1012.9
20260509164903 18 249 3.2 4.8 0.00 0.00 0.00 62 1012.7
20260509164359 19 306 1.6 3.2 0.00 0.00 0.00 60 1012.8
20260509163855 19 326 1.6 1.6 0.00 0.00 0.00 60 1012.8
20260509163352 19 297 0.0 1.6 0.00 0.00 0.00 60 1012.6
20260509162852 20 232 0.0 1.6 0.00 0.00 0.00 59 1012.5
20260509162350 20 299 3.2 3.2 0.00 0.00 0.00 59 1012.7
20260509161846 20 42 0.0 1.6 0.00 0.00 0.00 56 1012.8
20260509161342 20 336 0.0 0.0 0.00 0.00 0.00 57 1012.9
20260509160839 20 352 1.6 1.6 0.00 0.00 0.00 58 1013.0
20260509160334 18 162 0.0 0.0 0.00 0.00 0.00 61 1012.9
20260509155829 18 287 1.6 3.2 0.00 0.00 0.00 61 1012.9
20260509155326 18 266 0.0 0.0 0.00 0.00 0.00 60 1012.9
20260509154823 18 125 3.2 3.2 0.00 0.00 0.00 60 1012.8
20260509154319 18 310 0.0 1.6 0.00 0.00 0.00 61 1013.0
20260509153816 18 128 0.0 0.0 0.00 0.00 0.00 59 1013.1
20260509153313 18 192 0.0 0.0 0.00 0.00 0.00 60 1012.9
20260509152810 18 222 4.8 4.8 0.00 0.00 0.00 59 1013.0
20260509152307 20 158 1.6 3.2 0.00 0.00 0.00 58 1013.1
20260509151803 19 203 0.0 0.0 0.00 0.00 0.00 58 1013.1
20260509151259 18 95 0.0 0.0 0.00 0.00 0.00 60 1013.3
20260509150758 18 288 1.6 1.6 0.00 0.00 0.00 61 1013.2
20260509150255 18 203 1.6 1.6 0.00 0.00 0.00 61 1013.6
20260509145752 18 262 1.6 1.6 0.00 0.00 0.00 61 1013.5
20260509145252 18 166 0.0 0.0 0.00 0.00 0.00 62 1013.6
20260509144749 17 297 0.0 0.0 0.00 0.00 0.00 63 1013.5
20260509144245 17 76 0.0 0.0 0.00 0.00 0.00 63 1013.9
20260509143743 17 159 0.0 1.6 0.00 0.00 0.00 62 1013.7
20260509143240 17 313 0.0 0.0 0.00 0.00 0.00 61 1013.8
20260509142736 17 315 0.0 1.6 0.00 0.00 0.00 62 1013.5
20260509142232 17 294 1.6 3.2 0.00 0.00 0.00 62 1013.6
20260509141728 17 257 3.2 4.8 0.00 0.00 0.00 62 1013.5
20260509141226 17 270 3.2 4.8 0.00 0.00 0.00 62 1013.7
20260509140722 17 286 0.0 0.0 0.00 0.00 0.00 61 1013.8
20260509140222 17 299 0.0 1.6 0.00 0.00 0.00 62 1013.8
20260509135717 17 276 1.6 3.2 0.00 0.00 0.00 62 1013.8
20260509135215 17 248 0.0 0.0 0.00 0.00 0.00 61 1013.7
20260509134711 17 263 3.2 3.2 0.00 0.00 0.00 62 1013.7
20260509134208 17 287 0.0 0.0 0.00 0.00 0.00 64 1013.5
20260509133705 17 354 1.6 3.2 0.00 0.00 0.00 62 1013.7
20260509133202 17 267 0.0 0.0 0.00 0.00 0.00 63 1013.6
20260509132701 17 247 0.0 0.0 0.00 0.00 0.00 63 1013.5
20260509132159 17 21 0.0 1.6 0.00 0.00 0.00 63 1013.6
20260509131655 17 288 1.6 1.6 0.00 0.00 0.00 63 1013.4
20260509131152 16 266 0.0 1.6 0.00 0.00 0.00 63 1013.5
20260509130647 17 141 0.0 1.6 0.00 0.00 0.00 64 1013.3
20260509130144 16 43 0.0 0.0 0.00 0.00 0.00 63 1013.5
20260509125641 16 317 1.6 3.2 0.00 0.00 0.00 64 1013.5
20260509125137 16 243 1.6 1.6 0.00 0.00 0.00 64 1013.6
20260509124634 15 286 0.0 0.0 0.00 0.00 0.00 66 1013.6
20260509124131 15 149 0.0 0.0 0.00 0.00 0.00 65 1013.8
20260509123629 15 138 0.0 0.0 0.00 0.00 0.00 67 1013.6
20260509123125 15 272 0.0 0.0 0.00 0.00 0.00 65 1013.5
20260509122621 15 175 0.0 0.0 0.00 0.00 0.00 66 1013.4
20260509122119 15 39 1.6 1.6 0.00 0.00 0.00 65 1013.5
20260509121615 15 141 0.0 0.0 0.00 0.00 0.00 67 1013.5
20260509121113 15 145 0.0 1.6 0.00 0.00 0.00 68 1013.4
20260509120611 15 14 0.0 0.0 0.00 0.00 0.00 68 1013.5
20260509120109 15 49 0.0 0.0 0.00 0.00 0.00 67 1013.4
20260509115606 15 270 0.0 0.0 0.00 0.00 0.00 67 1013.5
20260509115103 15 136 0.0 1.6 0.00 0.00 0.00 66 1013.4
20260509114601 15 136 0.0 0.0 0.00 0.00 0.00 65 1013.6
20260509114100 15 106 1.6 3.2 0.00 0.00 0.00 65 1013.4
20260509113558 15 13 0.0 0.0 0.00 0.00 0.00 65 1013.1
20260509113055 15 0 0.0 0.0 0.00 0.00 0.00 65 1013.2
20260509112551 14 75 0.0 0.0 0.00 0.00 0.00 66 1013.3
20260509112049 14 343 0.0 0.0 0.00 0.00 0.00 67 1013.0
20260509111546 14 119 0.0 1.6 0.00 0.00 0.00 68 1013.3
20260509111043 14 239 1.6 1.6 0.00 0.00 0.00 68 1013.1
20260509110540 14 113 0.0 0.0 0.00 0.00 0.00 68 1013.2
20260509110037 14 136 0.0 1.6 0.00 0.00 0.00 68 1013.1
20260509105535 14 82 0.0 0.0 0.00 0.00 0.00 67 1013.1
20260509105032 15 115 0.0 0.0 0.00 0.00 0.00 67 1013.0
20260509104529 15 106 1.6 1.6 0.00 0.00 0.00 67 1012.9
20260509104026 15 215 0.0 0.0 0.00 0.00 0.00 67 1012.7
20260509103524 15 138 1.6 1.6 0.00 0.00 0.00 63 1012.9
20260509103022 15 71 0.0 0.0 0.00 0.00 0.00 63 1012.9
20260509102519 14 63 0.0 0.0 0.00 0.00 0.00 63 1012.9
20260509102015 14 150 0.0 1.6 0.00 0.00 0.00 64 1012.9
20260509101512 14 79 0.0 0.0 0.00 0.00 0.00 65 1012.8
20260509101009 14 258 0.0 0.0 0.00 0.00 0.00 65 1012.8
20260509100506 14 96 0.0 0.0 0.00 0.00 0.00 65 1012.7
20260509100004 14 109 0.0 0.0 0.00 0.00 0.00 64 1012.7
20260509095459 14 35 0.0 0.0 0.00 0.00 0.00 66 1012.6